Temperature
12 12 12 12 12 12 12 12 12 11 11 11 11 11 11 11 11 11 11 11 11 11 11 11 11 11 11 11 11 11 11 11 11 11 11 11 11 11 11 11 11 11 11
12 12 12 12 11 11 11 11 11 11 11 11 11 11 11 11 11 11 11 11 11 11 11 11 11 11 11 11 11 11 11 11 11 11 11 11 10 10 10 10 10 10 10
11 11 11 11 11 11 11 11 11 10 10 10 10 10 10 10 10 10 10 10 10 10 10 10 10 10 10 10 10 10 10 10 10 10 10 10 10 10 10 10 10 10 10
11 11 11 11 11 11 10 10 10 10 10 10 10 10 10 10 10 10 10 10 10 10 10 10 10 10 10 10 10 10 10 10 10 10 10 10 10 10 10 9 9 9 10
11 11 10 10 10 10 10 10 10 9 10 9 9 9 9 9 9 9 9 9 9 9 9 9 9 9 9 9 9 9 9 9 9 9 9 9 9 9 9 9 9 9 9
10 10 10 10 10 10 10 9 9 9 9 9 9 9 9 9 9 9 9 9 9 9 9 9 9 9 9 9 9 9 9 9 9 9 9 9 9 9 9 9 9 9 9
10 10 10 10 9 9 9 9 9 9 8 8 8 8 8 8 8 8 8 8 8 8 8 8 8 8 8 9 9 9 9 9 8 8 9 9 9 9 8 8 8 8 8
10 9 9 9 9 9 9 9 8 8 8 8 7 7 7 8 8 8 8 8 8 8 8 8 8 8 8 8 8 8 8 8 8 8 8 8 8 8 8 8 8 8 8
9 9 9 9 9 9 9 8 8 8 8 7 7 7 6 7 7 7 7 8 8 7 8 8 7 7 8 8 8 8 8 8 8 8 8 8 8 8 8 7 7 7 7
9 9 9 9 9 9 8 8 8 8 7 7 7 7 6 6 6 6 7 7 7 7 7 7 7 7 7 7 7 7 7 7 7 7 7 7 7 7 7 7 7 7 7
8 8 8 8 8 8 8 8 8 7 7 7 7 7 6 6 6 6 6 6 6 7 7 6 7 7 7 7 7 7 7 7 7 7 7 7 7 7 7 7 7 7 6
8 8 8 8 8 8 8 8 7 7 7 7 7 7 6 6 6 6 6 6 6 6 6 6 6 6 6 6 6 6 6 6 6 6 6 6 6 6 6 6 6 6 6
8 8 8 8 8 8 7 7 7 7 7 7 7 7 6 6 6 6 6 5 5 5 6 6 6 6 6 6 6 6 6 6 6 6 6 6 6 6 6 6 6 6 6
8 8 8 8 7 7 7 7 7 7 7 7 6 6 6 6 6 6 5 5 5 5 5 5 5 6 5 5 5 5 5 6 6 6 6 5 5 5 5 5 5 5 5
8 7 7 7 7 7 7 7 7 6 6 6 6 6 6 6 6 5 5 5 5 4 4 5 5 5 5 5 5 5 5 5 5 5 5 5 5 5 5 5 5 5 5
7 7 7 7 7 7 6 6 6 6 6 6 6 6 5 5 5 5 5 5 5 5 4 4 4 5 5 5 5 5 5 5 5 5 5 5 5 5 5 5 4 4 4
7 7 6 6 6 6 6 6 6 6 6 6 5 5 5 5 5 5 5 5 5 5 4 4 4 4 4 4 4 5 5 4 5 5 5 4 4 4 4 4 4 4 4
6 6 6 6 6 6 6 6 6 6 5 5 5 5 5 5 5 5 5 5 5 4 4 4 4 4 4 4 4 4 4 4 4 4 4 4 4 4 4 4 4 3 3
6 6 6 6 6 6 6 5 5 5 5 5 5 5 5 5 4 5 4 4 4 4 4 4 4 4 4 4 4 4 4 4 4 4 4 3 3 3 3 3 3 3 3
6 6 5 5 5 5 5 5 5 5 5 5 5 5 4 4 4 4 4 4 4 4 4 3 3 3 3 3 3 3 3 4 3 3 3 3 3 3 3 3 3 3 3
5 5 5 5 5 5 5 5 5 5 5 5 5 4 4 4 4 4 4 4 4 4 3 3 3 3 3 3 3 3 3 3 3 3 3 3 2 2 2 2 2 2 2
5 5 5 5 5 5 5 5 5 5 4 4 4 4 4 4 4 4 4 4 3 3 3 3 3 3 3 3 3 2 2 2 2 2 2 2 2 2 2 2 2 1 2
5 4 4 4 4 5 4 5 4 4 4 4 4 4 4 4 4 3 3 3 3 3 3 3 2 2 2 2 2 2 2 2 2 2 1 2 2 2 1 1 1 1 1
4 4 4 4 4 4 4 4 4 4 4 4 4 3 3 3 3 3 3 3 3 3 2 2 2 2 2 2 2 2 2 2 2 1 1 1 1 1 1 1 0 0 1
4 4 4 4 4 4 4 4 4 4 4 3 3 3 3 3 3 3 3 3 2 2 2 2 2 2 2 2 1 1 1 1 1 1 1 0 0 0 0 0 0 0 0
4 4 4 4 4 4 4 4 4 3 3 3 3 3 3 2 2 2 2 2 2 2 2 2 2 2 1 1 1 1 1 1 0 -0 -0 -0 -0 -0 -0 -0 -0 -0 -0
Wind_Speed
2 1 1 1 0 0 0 0 1 1 1 2 2 2 2 3 4 4 5 7 8 9 10 10 10 10 11 10 9 9 8 8 8 9 9 9 9 9 9 9 10 10 11
2 2 1 0 0 1 1 1 1 1 2 2 3 3 3 3 3 5 5 6 8 9 10 11 11 11 11 11 10 10 9 10 10 9 10 10 10 10 10 11 11 11 12
3 2 1 1 1 1 1 1 1 1 2 2 3 3 3 3 3 4 5 5 6 9 10 11 11 12 12 12 11 10 10 10 10 10 11 11 11 11 11 12 12 12 12
3 3 2 2 2 1 0 1 1 1 2 2 3 4 3 3 4 4 4 5 5 6 8 10 11 13 13 12 12 11 11 11 11 11 12 12 12 12 12 12 12 13 13
3 3 2 2 2 1 1 1 1 1 2 3 3 3 3 4 4 4 4 5 5 6 6 8 11 12 12 12 12 12 13 12 12 12 12 12 13 13 13 13 13 14 15
2 2 2 2 2 1 1 1 2 2 2 3 4 4 4 5 4 4 4 4 4 6 6 6 7 8 11 12 12 13 13 13 13 12 12 13 13 14 14 14 14 14 15
2 2 2 2 2 2 2 2 1 2 2 1 2 4 4 4 4 4 3 3 4 5 5 5 5 5 6 10 11 13 14 14 13 12 12 12 13 14 14 15 15 14 15
2 2 2 2 2 2 2 2 1 1 2 1 0 2 3 4 3 3 3 3 4 3 4 5 4 4 5 5 8 12 13 13 13 11 11 11 12 14 15 15 15 15 15
3 2 3 2 2 2 3 3 3 2 2 2 1 1 1 3 4 3 3 3 3 3 3 4 4 5 5 5 6 9 11 12 12 11 11 12 13 14 14 15 16 15 15
2 3 3 3 3 2 3 3 3 2 2 2 2 2 3 3 2 3 3 2 3 4 4 4 4 5 5 4 6 7 8 9 10 11 12 12 13 14 15 15 15 16 15
2 3 3 2 3 3 3 3 3 3 3 3 2 2 2 2 3 3 5 5 4 3 3 3 3 3 4 4 4 5 7 9 10 11 11 12 13 14 15 15 15 16 16
2 3 3 2 3 3 4 4 4 4 4 4 3 3 2 2 3 2 3 5 5 4 4 3 3 2 3 3 4 6 8 9 9 9 11 12 13 14 15 16 15 16 16
2 3 3 3 3 3 3 3 3 4 4 4 4 4 3 4 3 3 3 4 5 4 3 2 2 2 3 4 4 7 8 8 9 9 10 11 12 14 15 14 15 15 16
3 3 3 3 3 3 3 3 3 3 3 4 4 4 3 3 2 2 2 3 4 4 3 3 2 2 3 3 5 8 6 8 8 8 9 10 12 12 13 13 14 14 15
2 2 2 2 2 2 3 2 2 3 3 3 3 4 3 3 2 3 2 2 2 4 5 4 3 3 3 4 6 5 6 8 9 9 9 10 10 11 11 11 12 13 14
2 2 2 2 2 2 2 2 2 3 3 3 2 3 3 3 2 2 2 3 3 3 4 3 3 4 5 5 7 6 5 8 9 9 10 10 10 10 10 10 11 11 13
2 2 2 2 2 2 2 2 2 2 2 2 2 3 3 3 2 2 2 2 2 2 4 5 3 4 4 4 5 5 5 5 6 9 10 10 10 9 10 10 11 11 13
2 2 2 2 2 2 2 2 3 2 2 2 2 2 3 2 2 2 1 2 2 1 2 4 5 4 4 5 4 4 5 5 6 9 10 10 10 10 10 11 11 11 11
1 1 1 1 2 2 2 2 2 2 2 2 2 2 2 2 2 2 2 2 1 1 1 2 4 4 4 4 5 5 5 4 6 8 9 10 11 11 12 13 12 11 11
1 1 1 1 2 2 2 2 2 1 1 2 1 2 2 2 2 2 2 1 1 1 1 1 2 3 3 4 4 4 5 4 5 7 8 9 11 12 13 13 13 12 12
1 1 1 1 1 1 2 1 1 1 1 1 1 1 1 1 2 1 1 1 0 1 1 1 2 3 3 4 4 3 4 5 5 4 5 6 7 7 9 12 13 13 13
1 0 1 1 1 1 2 1 1 0 1 1 1 2 1 1 2 2 2 2 1 1 1 2 2 3 3 3 3 4 4 4 4 4 5 6 5 5 6 8 13 14 14
1 0 1 1 1 2 2 1 1 0 0 1 1 1 2 2 2 1 2 3 3 4 3 1 2 3 3 3 3 4 4 3 3 5 5 5 4 5 6 9 14 15 15
1 1 1 1 1 2 2 2 1 0 0 0 0 0 0 1 1 2 2 3 3 4 4 3 1 2 2 2 2 2 3 3 2 3 3 3 5 5 6 7 12 14 15
1 1 1 1 1 2 2 2 2 0 1 1 1 1 1 1 2 3 3 3 4 4 6 7 6 6 6 6 5 3 3 3 4 3 3 2 4 5 5 5 9 13 15
1 1 1 1 1 1 2 2 2 1 1 1 1 1 2 2 3 3 3 2 2 3 3 5 6 7 7 7 8 4 2 2 3 3 3 3 3 4 4 3 5 8 10
Wind_Direction
154 135 109 88 65 42 75 11 4 336 311 303 299 298 285 288 290 283 287 285 284 280 279 277 273 269 267 261 256 255 255 257 261 263 262 263 265 265 266 270 271 274 274
157 157 165 196 276 256 247 242 268 296 294 290 289 279 271 276 275 274 276 282 285 283 281 282 279 271 269 266 261 258 257 258 260 263 265 264 264 265 267 269 271 272 274
167 164 182 215 240 257 280 316 317 314 304 307 300 289 278 270 266 265 268 271 275 281 282 283 285 279 272 270 266 262 258 258 260 261 265 266 266 269 270 271 272 273 274
179 165 181 216 224 202 162 269 278 293 294 294 291 286 281 269 265 266 263 262 266 271 277 282 284 284 277 275 273 269 265 262 261 263 265 265 268 269 270 272 273 272 273
180 171 189 211 194 169 217 260 288 271 284 295 288 281 278 275 271 275 269 264 262 264 267 277 282 284 285 282 280 275 272 267 265 267 267 267 268 270 270 271 272 273 272
192 179 196 213 186 199 233 238 260 276 264 276 295 298 287 278 271 265 265 264 264 267 267 273 277 282 287 285 284 279 277 271 269 270 271 271 270 272 273 271 270 272 273
199 183 210 215 207 211 227 232 246 273 280 292 317 314 302 282 269 268 265 266 268 267 261 263 268 270 281 285 286 281 285 280 276 275 273 274 276 276 277 275 272 273 275
204 198 204 220 220 219 234 240 240 253 279 288 280 326 318 317 306 283 278 274 279 277 277 276 274 274 277 277 281 286 288 284 279 279 279 282 284 282 279 280 277 275 276
218 212 216 218 224 211 223 234 229 220 247 269 220 203 261 271 308 300 291 290 292 294 296 288 279 274 276 279 282 284 286 287 284 283 285 285 284 285 284 281 279 275 276
235 227 223 221 220 221 229 236 236 237 218 247 267 245 239 243 267 301 312 309 307 300 292 296 291 282 278 282 285 289 290 289 287 286 289 288 288 288 288 288 287 281 278
251 246 238 232 229 229 232 235 240 242 227 229 239 256 265 270 246 260 295 312 316 303 295 287 295 290 288 290 289 285 293 294 288 288 290 293 293 294 292 290 288 288 283
260 261 259 249 239 234 233 234 233 235 238 238 237 235 240 250 260 253 278 301 307 311 307 297 292 300 301 301 297 307 305 299 296 296 295 296 295 295 295 292 292 292 288
268 258 267 254 249 243 238 232 234 240 241 241 238 239 239 244 247 254 270 294 304 309 311 314 297 299 318 322 321 320 315 308 307 306 304 302 299 296 295 295 296 295 293
243 245 250 253 248 244 244 235 241 247 250 248 249 244 250 250 244 244 250 281 306 312 320 305 320 316 323 329 325 328 328 317 320 320 315 312 308 304 299 296 295 298 298
247 246 245 258 258 246 243 244 248 250 252 251 247 245 249 251 247 249 246 240 246 295 307 312 323 324 329 329 328 338 326 322 323 327 327 321 317 317 310 304 299 298 300
245 238 246 255 264 262 258 254 267 261 254 260 252 251 254 259 255 253 246 248 236 242 283 306 309 315 321 326 332 338 329 332 333 329 329 330 331 326 323 317 310 309 309
246 235 241 250 259 271 274 259 259 262 259 271 275 260 262 261 253 260 254 252 248 230 270 303 314 322 327 327 327 336 336 335 337 335 335 334 334 335 338 330 323 317 313
244 246 247 250 261 272 272 264 260 263 257 264 271 272 272 272 262 260 249 253 255 247 250 288 309 320 321 319 323 333 338 343 345 338 340 341 343 343 344 338 328 322 320
258 268 259 254 268 275 273 268 260 261 263 262 261 262 267 258 266 273 264 262 264 281 265 263 298 314 317 326 331 333 338 343 347 345 346 348 349 347 345 344 339 332 329
237 253 262 270 269 271 275 275 270 273 283 283 271 257 253 241 244 250 258 260 262 287 294 281 306 316 322 325 333 334 337 344 343 347 352 353 354 353 349 346 349 349 344
242 245 256 287 292 269 280 299 279 288 294 321 325 298 279 287 294 294 293 275 257 267 285 288 305 319 324 330 329 325 324 330 339 346 341 351 351 352 349 347 350 353 351
262 255 250 273 301 298 324 326 351 329 330 337 328 332 330 331 339 341 352 358 5 327 288 297 303 308 310 313 320 325 328 338 338 346 348 338 349 344 346 346 354 357 356
222 242 265 285 283 304 335 335 6 62 355 311 321 340 346 350 358 10 21 22 13 1 343 305 301 307 307 309 318 330 333 334 320 328 336 324 338 337 339 344 354 357 358
220 227 255 272 270 303 337 328 335 84 97 333 312 320 3 5 11 53 66 39 19 14 6 8 350 324 328 332 324 312 316 327 318 335 345 327 332 331 334 336 347 354 357
187 200 243 261 278 311 342 0 39 98 62 4 359 42 52 51 31 57 72 58 35 21 23 33 33 31 26 18 15 15 4 360 336 332 353 344 328 325 323 331 341 350 353
146 150 52 6 323 311 354 28 50 95 80 28 27 24 27 37 49 56 74 81 58 15 24 25 27 25 27 21 17 18 358 347 330 325 341 345 326 334 329 324 334 342 346
Height
1508 1508 1508 1507 1507 1506 1505 1505 1504 1503 1503 1502 1501 1500 1500 1500 1499 1499 1498 1498 1498 1498 1498 1498 1498 1497 1498 1498 1497 1497 1497 1497 1497 1497 1497 1497 1496 1496 1496 1495 1495 1494 1494
1506 1506 1506 1505 1505 1504 1503 1503 1502 1501 1500 1499 1498 1498 1497 1497 1496 1496 1495 1495 1494 1494 1494 1494 1494 1493 1494 1493 1493 1493 1493 1493 1493 1493 1493 1492 1492 1492 1491 1491 1491 1490 1490
1504 1504 1504 1503 1503 1502 1501 1500 1499 1498 1497 1496 1495 1494 1494 1493 1493 1492 1492 1491 1490 1490 1490 1490 1489 1489 1489 1489 1489 1489 1489 1488 1488 1488 1488 1488 1487 1487 1487 1486 1486 1486 1485
1502 1502 1502 1501 1500 1500 1499 1498 1497 1496 1495 1493 1492 1491 1491 1490 1489 1489 1488 1487 1487 1486 1486 1486 1485 1485 1485 1485 1484 1484 1484 1484 1484 1484 1483 1483 1482 1482 1482 1481 1481 1481 1480
1500 1500 1499 1498 1498 1497 1496 1495 1494 1493 1492 1491 1489 1488 1487 1487 1486 1485 1484 1484 1483 1482 1482 1482 1481 1481 1480 1480 1479 1479 1479 1479 1478 1478 1478 1478 1477 1477 1476 1476 1476 1475 1475
1497 1497 1496 1496 1495 1494 1494 1493 1492 1491 1490 1489 1487 1485 1484 1483 1482 1481 1481 1480 1480 1479 1478 1478 1477 1477 1476 1475 1474 1474 1474 1474 1473 1473 1472 1472 1472 1471 1471 1471 1470 1470 1469
1495 1494 1494 1493 1492 1492 1491 1490 1489 1488 1487 1486 1484 1482 1481 1480 1479 1478 1477 1477 1476 1475 1475 1474 1473 1473 1472 1471 1470 1470 1469 1469 1467 1467 1467 1467 1467 1466 1466 1465 1465 1464 1463
1492 1491 1491 1490 1489 1489 1488 1487 1486 1485 1484 1484 1483 1480 1478 1477 1475 1475 1474 1473 1472 1472 1471 1470 1469 1468 1467 1466 1465 1464 1464 1463 1462 1462 1462 1461 1461 1461 1460 1460 1459 1458 1457
1489 1488 1488 1487 1486 1486 1485 1484 1484 1483 1482 1482 1481 1481 1479 1475 1473 1471 1471 1470 1470 1468 1467 1466 1465 1464 1463 1462 1461 1460 1459 1459 1458 1457 1456 1456 1456 1455 1455 1454 1453 1451 1451
1486 1485 1485 1484 1484 1483 1482 1482 1481 1480 1480 1479 1479 1478 1478 1476 1474 1470 1468 1468 1467 1465 1464 1463 1462 1461 1460 1458 1457 1456 1455 1454 1453 1453 1452 1451 1451 1450 1449 1448 1446 1445 1444
1483 1482 1482 1481 1480 1480 1479 1479 1478 1478 1477 1476 1476 1475 1474 1473 1472 1470 1466 1464 1463 1462 1461 1460 1458 1457 1456 1454 1453 1452 1451 1450 1449 1448 1447 1446 1445 1444 1443 1441 1440 1439 1438
1479 1479 1479 1478 1477 1477 1476 1476 1475 1474 1474 1473 1473 1472 1471 1470 1469 1467 1465 1462 1460 1459 1458 1456 1455 1454 1453 1451 1450 1448 1447 1446 1444 1443 1442 1440 1439 1438 1437 1435 1434 1432 1431
1476 1475 1475 1475 1474 1474 1473 1473 1472 1471 1471 1470 1469 1468 1468 1467 1466 1465 1463 1460 1458 1456 1454 1453 1452 1451 1450 1448 1446 1445 1443 1442 1440 1439 1437 1435 1433 1432 1430 1428 1427 1426 1425
1473 1473 1472 1472 1471 1471 1470 1470 1469 1468 1467 1466 1466 1465 1465 1464 1463 1462 1461 1459 1455 1453 1451 1450 1449 1448 1447 1446 1444 1442 1440 1438 1436 1434 1432 1430 1428 1426 1423 1422 1421 1420 1419
1470 1470 1469 1469 1468 1468 1467 1466 1465 1465 1464 1463 1463 1462 1461 1461 1460 1460 1459 1458 1456 1452 1448 1447 1447 1445 1445 1443 1441 1439 1437 1435 1432 1430 1428 1425 1422 1420 1418 1415 1414 1414 1413
1467 1467 1466 1466 1465 1465 1464 1463 1462 1462 1461 1460 1460 1459 1458 1458 1457 1456 1456 1455 1454 1452 1448 1445 1445 1444 1442 1440 1439 1437 1435 1432 1429 1426 1424 1421 1418 1416 1413 1411 1410 1409 1408
1465 1464 1463 1463 1462 1462 1461 1460 1459 1459 1458 1457 1456 1456 1455 1455 1454 1453 1452 1452 1451 1449 1446 1444 1443 1442 1440 1438 1436 1434 1432 1429 1426 1423 1420 1418 1415 1412 1410 1408 1406 1404 1403
1462 1461 1461 1460 1460 1459 1458 1457 1456 1455 1455 1454 1453 1453 1452 1452 1451 1450 1449 1448 1448 1447 1445 1442 1441 1439 1438 1436 1434 1431 1429 1426 1423 1420 1418 1415 1412 1410 1407 1405 1403 1400 1399
1458 1458 1458 1457 1457 1456 1455 1454 1454 1453 1452 1451 1451 1450 1449 1449 1448 1447 1447 1446 1445 1444 1443 1441 1439 1437 1436 1434 1431 1429 1427 1424 1421 1418 1416 1413 1410 1408 1405 1402 1399 1396 1395
1456 1455 1455 1454 1454 1453 1453 1452 1451 1450 1449 1449 1448 1448 1447 1446 1445 1445 1444 1444 1443 1442 1441 1439 1437 1436 1434 1432 1430 1427 1424 1422 1419 1416 1414 1412 1409 1406 1403 1399 1397 1394 1391
1453 1453 1452 1452 1451 1451 1450 1450 1449 1448 1447 1446 1446 1445 1445 1444 1444 1443 1442 1442 1441 1440 1439 1437 1435 1434 1432 1430 1428 1426 1423 1420 1418 1415 1412 1410 1407 1404 1401 1398 1395 1392 1389
1450 1450 1450 1449 1449 1448 1448 1448 1447 1446 1445 1444 1443 1443 1443 1442 1442 1441 1441 1440 1440 1438 1437 1435 1434 1432 1431 1429 1427 1425 1422 1419 1416 1415 1412 1409 1406 1403 1400 1397 1394 1391 1388
1448 1448 1447 1447 1447 1446 1446 1446 1445 1444 1443 1443 1442 1441 1440 1440 1440 1439 1439 1439 1438 1437 1436 1435 1433 1432 1430 1429 1427 1424 1422 1420 1417 1414 1412 1408 1406 1402 1399 1396 1394 1391 1387
1445 1445 1445 1445 1445 1445 1444 1444 1444 1443 1442 1441 1440 1440 1439 1439 1438 1438 1437 1437 1436 1435 1434 1434 1432 1431 1429 1428 1426 1424 1422 1419 1416 1414 1412 1408 1404 1402 1399 1396 1393 1390 1387
1444 1444 1444 1443 1443 1443 1443 1442 1442 1441 1440 1439 1439 1438 1438 1438 1437 1437 1436 1435 1434 1434 1433 1432 1431 1430 1428 1427 1425 1423 1421 1418 1415 1413 1411 1408 1404 1401 1399 1396 1393 1390 1387
1442 1442 1442 1442 1442 1441 1441 1441 1440 1439 1438 1438 1437 1437 1437 1437 1436 1436 1435 1434 1433 1433 1432 1431 1430 1429 1427 1426 1425 1423 1421 1419 1415 1413 1411 1408 1405 1402 1398 1396 1394 1391 1387